sat.trackr.live / text

‹ back to catalog

STARLINK-36153

NORAD 66934 · 2025-286K

PAYLOAD ACTIVE UNKNOWN

§ Identity

Operator
Country
US
Launch date
2025-12-07
Launch site
AFWTR
Launch vehicle
Mass (kg)
RCS (m²)

Purposes: comms

External: N2YO · Heavens-Above · Gunter

§ Orbital elements

Epoch: 2026-09-20T08:41:06.970272Z

Period
93.85 min
Inclination
53.1585°
Eccentricity
0.0000982
Mean motion
15.34354800 rev/d
Perigee alt
462.2 km
Apogee alt
463.5 km
Semi-major
6,841.0 km
B*
8.9037e-4
RAAN
170.5548°
Arg perigee
96.5286°
Mean anomaly
263.5828°
Rev number
4,527

§ Raw data

STARLINK-361531 66934U 25286K   26263.36188623  .00029783  00000+0  89037-3 0  99952 66934  53.1585 170.5548 0000982  96.5286 263.5828 15.34354800 45277

JSON: /api/v1/satellites/66934 · /tle

For live sub-satellite position, see the globe view (requires WebGL).

§ Visibility from observer

Set your observer location to see the next 7 days of passes ≥ 10°. The values pass through the URL so the page stays shareable.

No JS? Fill the form by hand. The geolocation button needs JavaScript.